UAL721 TBPB-KEWR

Flight info

Callsign UAL721
Flight time N/A
Altitude 38000
Route FOF UA555 ILURI Y185 DONQU DCT MNDEZ L454 LUCTI/M085F380 L454 OKONU/N0487F380 DCT YAALE Y497 SUBBS DCT CYN DCT GXU DCT RBV V249 METRO
Aircraft B78X/H-SDE1E2E3FGHIJ2J3J4J5M1RWXY/LB1D1

Departure

Time 2026-04-30 15:04
Airport Grantley Adams International Airport (TBPB)

Arrival

Time N/A
Airport Newark Liberty International Airport (KEWR)
Time Latitude Longitude Altitude Speed Heading
2026-04-30 14:49 13.07896 -59.48687 177 ft 0 kts 337°
2026-04-30 14:53 13.07887 -59.48684 177 ft 2 kts 330°
2026-04-30 14:53 13.07874 -59.48674 177 ft 3 kts 317°
2026-04-30 14:54 13.07855 -59.48646 177 ft 3 kts 282°
2026-04-30 14:54 13.07854 -59.48602 177 ft 3 kts 258°
2026-04-30 14:55 13.07860 -59.48573 177 ft 2 kts 253°
2026-04-30 14:55 13.07863 -59.48562 177 ft 2 kts 253°
2026-04-30 14:55 13.07864 -59.48561 177 ft 0 kts 253°
2026-04-30 14:57 13.07858 -59.48578 177 ft 9 kts 247°
2026-04-30 14:58 13.07750 -59.48767 178 ft 16 kts 236°
2026-04-30 14:58 13.07714 -59.48873 178 ft 16 kts 255°
2026-04-30 14:58 13.07659 -59.49096 179 ft 16 kts 256°
2026-04-30 14:59 13.07600 -59.49335 180 ft 18 kts 256°
2026-04-30 15:00 13.07498 -59.49752 181 ft 21 kts 256°
2026-04-30 15:00 13.07426 -59.50048 182 ft 21 kts 256°
2026-04-30 15:01 13.07353 -59.50340 183 ft 21 kts 255°
2026-04-30 15:01 13.07330 -59.50436 183 ft 21 kts 256°
2026-04-30 15:01 13.07270 -59.50679 183 ft 9 kts 256°
2026-04-30 15:02 13.07231 -59.50722 183 ft 8 kts 199°
2026-04-30 15:02 13.07178 -59.50720 183 ft 8 kts 172°
2026-04-30 15:03 13.07118 -59.50631 183 ft 10 kts 82°
2026-04-30 15:03 13.07339 -59.49720 181 ft 143 kts 76°
2026-04-30 15:04 13.07782 -59.48068 2312 ft 74 kts 83°